Brownsville, TX

11:42 PM CDT on April 27, 2017 (GMT -0500)
Brownsville-South Padre I International

Weather History for KBRO - December, 2013

Change the Weather History Date:

Sunday, December 15, 2013

  Actual Average Record
Temperature  
Mean Temperature 52 °F 62 °F  
Max Temperature 64 °F 72 °F 85 °F (2012)
Min Temperature 40 °F 53 °F 32 °F (1947)
Degree Days  
Heating Degree Days 13 5  
Month to date heating degree days 121 67  
Since 1 July heating degree days 229 121  
Cooling Degree Days 0 3  
Month to date cooling degree days 40 47  
Year to date cooling degree days 4160 3992  
Growing Degree Days 3 (Base 50)    
Moisture  
Dew Point 37 °F    
Average Humidity 57    
Maximum Humidity 82    
Minimum Humidity 32    
Precipitation  
Precipitation 0.00 in 0.04 in 1.21 in (1937)
Month to date precipitation 0.11 0.61  
Year to date precipitation 25.60 26.90  
Sea Level Pressure  
Sea Level Pressure 30.35 in    
Wind  
Wind Speed 8 mph (North)    
Max Wind Speed 15 mph    
Max Gust Speed 22 mph    
Visibility 10 miles    
Events      
T = Trace of Precipitation, MM = Missing Value Source: NWS Daily Summary

Daily Weather History Graph

Daily Weather History Graph

Search for Another Location

Airport or City:

Trip Planner

Search our weather history database for the weather conditions in past years. The results will help you decide how hot, cold, wet, or windy it might be!

Date:

Astronomy

Dec. 15, 2013 Rise Set
Actual Time 7:09 AM CST 5:40 PM CST
Civil Twilight 6:43 AM CST 6:06 PM CST
Nautical Twilight 6:15 AM CST 6:34 PM CST
Astronomical Twilight 5:46 AM CST 7:03 PM CST
Moon 4:40 PM CST (12/15) 5:33 AM CST (12/15)
Length of Visible Light 11h 22m
Length of Day
10h 31m
Waxing Gibbous, 98% of the Moon is Illuminated
Dec 15
Waxing Gibbous
Dec 17
Full
Dec 25
Last Quarter
Jan 1
New
Jan 7
First Quarter

Hourly Weather History & Observations

Time (CST) Temp. Windchill Dew Point Humidity Pressure Visibility Wind Dir Wind Speed Gust Speed Precip Events Conditions
12:53 AM 51.1 °F - 39.9 °F 66% 30.32 in 10.0 mi North 9.2 mph - N/A   Clear
1:53 AM 48.9 °F - 39.0 °F 69% 30.32 in 10.0 mi NNW 10.4 mph - N/A   Clear
2:53 AM 46.9 °F - 37.0 °F 68% 30.34 in 10.0 mi NNW 10.4 mph - N/A   Clear
3:53 AM 46.9 °F - 36.0 °F 66% 30.36 in 10.0 mi NNW 13.8 mph 19.6 mph N/A   Clear
4:53 AM 46.0 °F 41.0 °F 37.0 °F 71% 30.36 in 10.0 mi NW 10.4 mph - N/A   Clear
5:53 AM 45.0 °F 39.3 °F 36.0 °F 71% 30.36 in 10.0 mi NNW 11.5 mph 19.6 mph N/A   Clear
6:53 AM 44.1 °F 38.6 °F 35.1 °F 71% 30.37 in 10.0 mi NNW 10.4 mph - N/A   Clear
7:53 AM 45.0 °F 40.6 °F 35.1 °F 68% 30.40 in 10.0 mi NW 8.1 mph - N/A   Clear
8:53 AM 50.0 °F - 34.0 °F 54% 30.41 in 10.0 mi NNW 13.8 mph - N/A   Clear
9:53 AM 53.1 °F - 35.1 °F 50% 30.41 in 10.0 mi NNW 9.2 mph - N/A   Clear
10:53 AM 55.9 °F - 35.1 °F 45% 30.40 in 10.0 mi North 10.4 mph - N/A   Clear
11:53 AM 59.0 °F - 36.0 °F 42% 30.39 in 10.0 mi NNE 9.2 mph - N/A   Clear
12:53 PM 61.0 °F - 35.1 °F 38% 30.35 in 10.0 mi NNE 10.4 mph - N/A   Clear
1:53 PM 62.1 °F - 34.0 °F 35% 30.32 in 10.0 mi North 6.9 mph - N/A   Clear
2:53 PM 63.0 °F - 32.0 °F 31% 30.32 in 10.0 mi NNE 8.1 mph - N/A   Clear
3:53 PM 60.1 °F - 36.0 °F 41% 30.30 in 10.0 mi NE 10.4 mph - N/A   Clear
4:53 PM 57.0 °F - 39.0 °F 51% 30.32 in 10.0 mi NE 11.5 mph - N/A   Clear
5:53 PM 52.0 °F - 37.9 °F 59% 30.32 in 10.0 mi NE 6.9 mph - N/A   Clear
6:53 PM 50.0 °F - 39.0 °F 66% 30.33 in 10.0 mi Calm Calm - N/A   Clear
7:53 PM 48.0 °F - 39.0 °F 71% 30.35 in 10.0 mi Calm Calm - N/A   Clear
8:53 PM 45.0 °F - 37.9 °F 76% 30.35 in 10.0 mi Calm Calm - N/A   Clear
9:53 PM 44.1 °F - 37.9 °F 79% 30.36 in 10.0 mi Calm Calm - N/A   Clear
10:53 PM 42.1 °F - 37.0 °F 82% 30.35 in 10.0 mi Calm Calm - N/A   Clear
11:53 PM 42.1 °F 40.2 °F 37.9 °F 85% 30.35 in 10.0 mi NNW 3.5 mph - N/A   Clear